Flag for Switzerland Weather past 2 weeks in Vernier, Geneva, Switzerland

Now
34 °F

Passing clouds.


Feels Like: 31 °F
Forecast: 31 / 40 °F
Wind: 3 mph from North

Location: Geneva Cointrin Airport

Current Time: Dec 25, 2014 at 11:13:40 PM

Latest Report: Dec 25, 2014 at 10:20 PM


Visibility: N/A

Pressure: 30.42 "Hg

Humidity: 75%

Dew point: 27 °F

Location of VernierLocation

Historic Weather in Vernier — Graph

°F

Vernier temperature yesterday

Maximum temperature yesterday: 50 °F (at 1:50 PM)
Minimum temperature yesterday: 30 °F (at 1:50 AM)
Average temperature yesterday: 38 °F

Past Weeks' High & Low Weather Summary

 TemperatureHumidityPressure
High57 °F (Dec 19, 1:20 PM)100% (Dec 11, 4:20 AM)30.57 "Hg (Dec 11, 4:20 AM)
Low27 °F (Dec 22, 4:50 AM)38% (Dec 23, 1:50 PM)29.89 "Hg (Dec 13, 1:50 AM)
Average42 °F84%30.21 "Hg
* Reported Dec 10 9:20 PM — Dec 25 9:50 PM, Vernier, Weather by CustomWeather, © 2014

Note: Actual official high and low records may vary slightly from our data, if they occured in-between our weather recording intervals... More about our weather records

Advertising

Vernier weather history for previous 24 hours

 ConditionsComfort  
Time TempWeatherWind HumidityBarometerVisibility
9:50 PM
Dec 25
36 °FPassing clouds.1 mph70%30.42 "HgN/A
9:20 PM37 °FPassing clouds.3 mph65%30.42 "HgN/A
8:50 PM39 °FPassing clouds.6 mph61%30.42 "HgN/A
8:20 PM39 °FPassing clouds.6 mph61%30.39 "HgN/A
7:50 PM43 °FPassing clouds.5 mph53%30.39 "HgN/A
7:20 PM45 °FPassing clouds.7 mph57%30.39 "HgN/A
6:50 PM45 °FPassing clouds.7 mph53%30.39 "HgN/A
6:20 PM45 °FPassing clouds.5 mph57%30.36 "HgN/A
5:50 PM46 °FPassing clouds.5 mph57%30.36 "HgN/A
5:20 PM46 °FPartly cloudy.1 mph62%30.33 "HgN/A
4:50 PM46 °FBroken clouds.2 mph62%30.33 "HgN/A
4:20 PM48 °FBroken clouds.3 mph62%30.33 "HgN/A
3:50 PM50 °FScattered clouds.2 mph54%30.33 "HgN/A
3:20 PM52 °FBroken clouds.3 mph50%30.33 "HgN/A
2:50 PM52 °FScattered clouds.3 mph54%30.33 "HgN/A
2:20 PM50 °FPartly sunny.5 mph58%30.33 "HgN/A
1:50 PM52 °FBroken clouds.6 mph62%30.33 "HgN/A
1:20 PM52 °FScattered clouds.6 mph67%30.33 "HgN/A
12:50 PM52 °FScattered showers. Scattered clouds.6 mph67%30.33 "HgN/A
12:20 PM50 °FScattered showers. Scattered clouds.7 mph67%30.33 "HgN/A
11:50 AM48 °FPassing clouds.7 mph71%30.36 "HgN/A
11:20 AM46 °FPassing clouds.2 mph76%30.36 "HgN/A
10:50 AM45 °FScattered clouds.2 mph81%30.36 "HgN/A
10:20 AM43 °FPartly sunny.2 mph87%30.36 "HgN/A
9:50 AM41 °FPartly sunny.1 mph93%30.36 "HgN/A
9:20 AM41 °FPartly sunny.2 mph87%30.33 "HgN/A
8:50 AM41 °FPartly sunny.2 mph87%30.33 "HgN/A
8:20 AM41 °FPartly sunny.3 mph87%30.33 "HgN/A
7:50 AM41 °FPartly cloudy.3 mph87%30.33 "HgN/A
7:20 AM41 °FPassing clouds.6 mph87%30.33 "HgN/A
6:50 AM41 °FPassing clouds.5 mph87%30.33 "HgN/A
6:20 AM39 °FPassing clouds.5 mph93%30.33 "HgN/A
5:50 AM39 °FPassing clouds.3 mph93%30.33 "HgN/A
5:20 AM37 °FPassing clouds.2 mph100%30.33 "HgN/A
4:20 AM37 °FPartly cloudy.2 mph100%30.33 "HgN/A
3:50 AM37 °FPassing clouds.2 mph100%30.33 "HgN/A
3:20 AM36 °FPartly cloudy.3 mph100%30.33 "HgN/A
2:50 AM36 °FPassing clouds.1 mph100%30.36 "HgN/A
1:50 AM36 °FPassing clouds.2 mph100%30.36 "HgN/A
1:20 AM34 °FPassing clouds.1 mph100%30.36 "HgN/A
12:50 AM34 °FPassing clouds.1 mph100%30.36 "HgN/A
12:20 AM34 °FPassing clouds.1 mph100%30.36 "HgN/A
11:50 PM
Dec 24
34 °FPassing clouds.5 mph100%30.36 "HgN/A
11:20 PM36 °FPassing clouds.3 mph100%30.36 "HgN/A
Weather by CustomWeather, © 2014

See weather overviewHow to use our weather pages